Regional Weather Roundup
Issued by NWS

Home | Current Version | Previous Version | Graphics & Text | Print | Product List | Glossary Off
Versions: 1 2 3 4 5 6 7 8 9 10 11 12 13 14 15 16 17 18 19 20 21 22 23 24 25 26 27 28 29 30 31 32 33 34 35 36 37 38 39 40 41 42 43 44 45 46 47 48 49 50

000
ASUS43 KDTX 011010
RWRMI
MICHIGAN HOURLY REGIONAL WEATHER ROUNDUP
NATIONAL WEATHER SERVICE DETROIT/PONTIAC MI
600 AM EDT SAT AUG 01 2015

NOTE: "FAIR" INDICATES FEW OR NO CLOUDS BELOW 12,000 FEET WITH NO
SIGNIFICANT WEATHER AND/OR OBSTRUCTION TO VISIBILITY.

MIZ047>049-052>055-059>063-066>070-074>076-081>083-011100-
SOUTHEAST LOWER MICHIGAN

CITY           SKY/WX    TMP DP  RH WIND       PRES   REMARKS
ADRIAN         CLEAR     61  54  77 NW6       29.94R
ALMA           CLEAR     56  54  95 CALM      29.91S
ANN ARBOR      CLEAR     60  54  80 W8        29.91S
BAD AXE        CLEAR     52  51  95 CALM      29.88S
CARO           CLEAR     53  52  98 CALM      29.89S
DETROIT CITY   CLEAR     65  53  65 NW3       29.90R
DETROIT        CLEAR     63  54  72 W8        29.91S
FLINT          CLEAR     61  55  81 CALM      29.90S
GROSSE ILE     CLEAR     63  55  77 W6        29.90R
HILLSDALE      CLEAR     62  58  87 W6        29.95R
HOWELL         CLEAR     58  55  89 W7        29.91S

CITY           SKY/WX    TMP DP  RH WIND       PRES   REMARKS
JACKSON        CLEAR     58  54  86 CALM      29.93S
LAMBERTVILLE   CLEAR     62  55  77 CALM      29.93S
LANSING        CLEAR     61  56  83 W3        29.92S
LAPEER         FAIR      55  53  95 CALM      29.90S
MASON          CLEAR     55  53  93 CALM      29.93R
MONROE         CLEAR     57  54  90 CALM      29.91R
MT. CLEMENS    CLEAR     63  56  78 W5        29.87S
PONTIAC        PTCLDY    62  55  77 W6        29.90S
PORT HOPE        N/A     58  56  93 SW6       29.85S
PORT HURON     CLEAR     55  55 100 CALM      29.89R
TRI CITIES     CLEAR     60  55  83 SW8       29.90S
MIDLAND        FAIR      54  53  97 CALM      29.89S
TROY           CLEAR     65  55  68 W6        29.91S
SAGINAW HB     CLEAR     57  54  88 CALM      29.89S
$$
MIZ043>046-050>051-056>058-064>065-071>073-077>080-011100-
SOUTHWEST LOWER MICHIGAN

CITY           SKY/WX    TMP DP  RH WIND       PRES   REMARKS
BATTLE CREEK   CLEAR     62  58  86 W7        29.95R
BENTON HARBOR  CLEAR     65  59  81 W5        29.95S
BIG RAPIDS     CLEAR     55  54  97 CALM      29.91S
COLDWATER      CLEAR     56  54  92 SW5       29.95S
FREMONT        FAIR      55  55  99 CALM      29.92S
HOLLAND        CLEAR     65  61  87 W6        29.94S
GRAND RAPIDS   CLEAR     62  58  86 W7        29.93S
IONIA          FAIR      60  57  90 W7        29.92R
KALAMAZOO      CLEAR     61  56  83 W5        29.96R
LUDINGTON      MOCLDY    71  62  73 CALM      29.90S
MARSHALL       CLEAR     57  55  92 W3        29.94S
MOUNT PLEASANT CLEAR     59  55  88 W3        29.89S
MUSKEGON       PTCLDY    68  58  70 W6        29.92S
SOUTH HAVEN    CLEAR     61  59  92 CALM      29.95S
$$
MIZ016>042-011100-
NORTHERN LOWER MICHIGAN

CITY           SKY/WX    TMP DP  RH WIND       PRES   REMARKS
ALPENA         CLEAR     58  54  86 SW3       29.85R
BEAVER ISLAND  CLEAR     62  57  83 W7        29.84S
BELLAIRE       CLEAR     52  50  93 CALM      29.87R
CADILLAC       CLEAR     53  53  97 W5        29.90S
CHARLEVOIX     CLEAR     65  59  82 W13       29.87S
FRANKFORT      CLOUDY    67  60  79 W7        29.88S
GAYLORD        CLEAR     56  55  97 W3        29.87S
GRAYLING       CLEAR     55  54  96 W5        29.88S
HARBOR SPRINGS PTCLDY    55  53  94 CALM      29.84S
HOUGHTON LAKE  CLEAR     61  57  87 W7        29.89S
MANISTEE       CLEAR     54  50  87 E5        29.90S
OSCODA         CLEAR     56  54  94 CALM      29.86R
PELLSTON       CLEAR     49  47  93 CALM      29.84R
ROGERS CITY    CLEAR     58  55  87 SW5       29.85R
TRAVERSE CITY  CLEAR     62  57  83 SW5       29.85S
$$
MIZ007>008-015-011100-
EASTERN UPPER MICHIGAN

CITY           SKY/WX    TMP DP  RH WIND       PRES   REMARKS
KINROSS        CLEAR     54  54 100 W5        29.82S
MACKINAC ISLAN CLEAR     62  57  84 W3        29.82S
NEWBERRY       CLEAR     54  53  94 W6        29.82S
S. S. MARIE    CLEAR     57  54  89 NW6       29.81R
MUNISING         N/A     57  52  83 S6        29.83S
$$
MIZ004>006-011>014-085-011100-
CENTRAL UPPER MICHIGAN

CITY           SKY/WX    TMP DP  RH WIND       PRES   REMARKS
MANISTIQUE     CLEAR     57  54  88 W6        29.83S
ESCANABA       CLOUDY    57  54  88 W7        29.85S
MENOMINEE      CLEAR     59  52  77 W3        29.87F
SAWYER-GWINN   MOCLDY    58  52  81 W8        29.86S
$$
MIZ001>003-009>011-084-011100-
WESTERN UPPER MICHIGAN

CITY           SKY/WX    TMP DP  RH WIND       PRES   REMARKS
IRON MOUNTAIN  CLEAR     57  53  86 W5        29.87F
HOUGHTON       MOCLDY    56  53  90 NW8       29.84F
COPPER HARBOR    N/A     65  51  60 NW8       29.81R
IRONWOOD       CLEAR     54  50  87 W8        29.90R
$$

ABBREVIATIONS USED IN REMARKS
   TC - TEMPERATURE IN CELSIUS
  WCI - WIND CHILL INDEX
   HX - HEAT INDEX
  VSB - VISIBILITY



USA.gov is the U.S. government's official web portal to all federal, state and local government web resources and services.